This demonstration page uses our WeatherBlox Daily Observations layout. Learn more.

Left ArrowRight Arrow

39.12711, -84.51439

Hourly Observations for June 16, 2018

Temp ( °F °C ) Dew Point ( °F °C ) Humidity (%) Winds ( mph kmh ) Pressure ( in mb ) Visibility ( mi km ) Precip ( " mm )
12:53 am 00:53 Clear 65 18.3 65 18.3 100 100 N N/A 30.02 1017 10 16 N/A
1:53 am 01:53 Clear 66 18.9 65 18.3 96 96 N N/A 30.01 1016 10 16 N/A
2:53 am 02:53 Clear 66 18.9 66 18.9 100 100 N N/A 30.01 1016 10 16 N/A
3:53 am 03:53 Clear 66 18.9 66 18.9 100 100 N N/A 30.00 1016 9 14 N/A
4:53 am 04:53 Clear 64 17.8 64 17.8 100 100 N N/A 30.01 1016 9 14 N/A
5:53 am 05:53 Clear 64 17.8 64 17.8 100 100 N N/A 30.03 1017 10 16 N/A
6:53 am 06:53 Sunny 64 17.8 64 17.8 100 100 N N/A 30.05 1018 7 11 N/A
7:53 am 07:53 Sunny 69 20.6 67 19.4 93 93 N N/A 30.06 1018 10 16 N/A
8:53 am 08:53 Partly Cloudy 74 23.3 67 19.4 79 79 N N/A 30.06 1018 10 16 N/A
9:53 am 09:53 Sunny 78 25.6 66 18.9 67 67 S 7 11 30.06 1018 10 16 N/A
10:53 am 10:53 Sunny 82 27.8 68 20 63 63 S 9 15 30.03 1017 10 16 N/A
11:53 am 11:53 Sunny 85 29.4 69 20.6 59 59 SE 7 11 30.03 1017 10 16 N/A
12:53 pm 12:53 Sunny 87 30.6 70 21.1 57 57 VRB 5 7 30.02 1017 10 16 N/A
1:53 pm 13:53 Sunny 90 32.2 71 21.7 54 54 VRB 6 9 30.01 1016 10 16 N/A
2:53 pm 14:53 Mostly Sunny 90 32.2 70 21.1 52 52 SSE 6 9 30.00 1016 10 16 N/A
3:53 pm 15:53 Mostly Sunny 90 32.2 72 22.2 56 56 SSE 6 9 29.99 1016 10 16 N/A
4:53 pm 16:53 Mostly Sunny 88 31.1 71 21.7 57 57 SE 8 13 29.98 1015 10 16 N/A
5:53 pm 17:53 Mostly Sunny 90 32.2 73 22.8 58 58 SSE 6 9 29.98 1015 10 16 N/A
6:53 pm 18:53 Mostly Sunny 88 31.1 72 22.2 59 59 S 6 9 29.98 1015 10 16 N/A
7:53 pm 19:53 Mostly Sunny 84 28.9 71 21.7 65 65 VRB 3 6 29.97 1015 10 16 N/A
8:53 pm 20:53 Mostly Sunny 80 26.7 73 22.8 79 79 VRB 3 6 29.98 1015 10 16 N/A
9:53 pm 21:53 Clear 76 24.4 74 23.3 94 94 N N/A 30.01 1016 10 16 N/A
10:53 pm 22:53 Clear 75 23.9 73 22.8 94 94 N N/A 30.04 1017 10 16 N/A
11:53 pm 23:53 Clear 74 23.3 73 22.8 97 97 N N/A 30.05 1018 9 14 N/A

Powered by AerisWeather